• In Russia
  • List of Countries
  • For 7 days
  • Water Temperature
  • Satellite Maps
  • Weather Map
  • Weather Widgets
  • user-avatar
    Login

    Hourly Weather Berat

    Today, 22 February, Wednesday

    Time Temperature Precipitation Wind Pressure Humidity
    00:00 +5°C° 0 mm 1 mps 747 mmHg 72%
    01:00 +5°C° 0 mm 1 mps 747 mmHg 70%
    02:00 +5°C° 0 mm 1 mps 747 mmHg 72%
    03:00 +5°C° 0 mm 1 mps 747 mmHg 74%
    04:00 +5°C° 0 mm 1 mps 747 mmHg 76%
    05:00 +5°C° 0 mm 1 mps 747 mmHg 76%
    06:00 +5°C° 0 mm 1 mps 747 mmHg 76%
    07:00 +6°C° 0 mm 1 mps 747 mmHg 76%
    08:00 +8°C° 0 mm 1 mps 747 mmHg 68%
    09:00 +11°C° 0 mm 1 mps 748 mmHg 60%
    10:00 +14°C° 0 mm 1 mps 748 mmHg 52%
    11:00 +14°C° 0 mm 1 mps 748 mmHg 52%
    12:00 +15°C° 0 mm 1 mps 747 mmHg 51%
    13:00 +16°C° 0 mm 1 mps 747 mmHg 50%
    14:00 +15°C° 0 mm 1 mps 747 mmHg 55%
    15:00 +15°C° 0 mm 1 mps 747 mmHg 61%
    16:00 +14°C° 0 mm 1 mps 747 mmHg 66%
    17:00 +12°C° 0 mm 1 mps 747 mmHg 74%
    18:00 +10°C° 0 mm 1 mps 747 mmHg 82%
    19:00 +7°C° 0 mm 0 mps 747 mmHg 90%
    20:00 +8°C° 0 mm 1 mps 747 mmHg 90%
    21:00 +8°C° 0 mm 1 mps 747 mmHg 90%
    22:00 +8°C° 0 mm 1 mps 747 mmHg 91%
    23:00 +8°C° 0 mm 1 mps 748 mmHg 91%

    Tomorrow, 23 February, Thursday

    Time Temperature Precipitation Wind Pressure Humidity
    00:00 +7°C° 0 mm 1 mps 748 mmHg 91%
    01:00 +6°C° 0 mm 2 mps 748 mmHg 92%
    02:00 +6°C° 0 mm 2 mps 748 mmHg 92%
    03:00 +6°C° 0 mm 2 mps 747 mmHg 92%
    04:00 +6°C° 0 mm 2 mps 747 mmHg 92%
    05:00 +6°C° 0 mm 2 mps 747 mmHg 91%
    06:00 +6°C° 0 mm 2 mps 747 mmHg 89%
    07:00 +6°C° 0 mm 2 mps 747 mmHg 88%
    08:00 +9°C° 0 mm 2 mps 747 mmHg 78%
    09:00 +12°C° 0 mm 2 mps 748 mmHg 67%
    10:00 +14°C° 0 mm 2 mps 748 mmHg 57%
    11:00 +15°C° 0 mm 2 mps 747 mmHg 54%
    12:00 +16°C° 0 mm 2 mps 747 mmHg 52%
    13:00 +16°C° 0 mm 3 mps 747 mmHg 50%
    14:00 +16°C° 0 mm 3 mps 746 mmHg 54%
    15:00 +14°C° 0 mm 3 mps 746 mmHg 58%
    16:00 +14°C° 0 mm 3 mps 746 mmHg 62%
    17:00 +13°C° 0 mm 2 mps 746 mmHg 71%
    18:00 +10°C° 0 mm 2 mps 746 mmHg 80%
    19:00 +8°C° 0 mm 2 mps 747 mmHg 88%
    20:00 +8°C° 0 mm 2 mps 747 mmHg 89%
    21:00 +8°C° 0 mm 3 mps 747 mmHg 91%
    22:00 +8°C° 0 mm 3 mps 747 mmHg 92%
    23:00 +8°C° 0 mm 3 mps 747 mmHg 92%

    Day after tomorrow, 24 February, Friday

    Time Temperature Precipitation Wind Pressure Humidity
    00:00 +8°C° 0 mm 3 mps 747 mmHg 93%
    01:00 +7°C° 0 mm 3 mps 747 mmHg 93%
    02:00 +7°C° 0 mm 3 mps 746 mmHg 93%
    03:00 +7°C° 0 mm 3 mps 746 mmHg 93%
    04:00 +7°C° 0 mm 3 mps 746 mmHg 93%
    05:00 +8°C° 0 mm 3 mps 746 mmHg 92%
    06:00 +8°C° 0 mm 3 mps 746 mmHg 92%
    07:00 +8°C° 0 mm 3 mps 746 mmHg 91%
    08:00 +10°C° 0 mm 3 mps 746 mmHg 85%
    09:00 +12°C° 0 mm 4 mps 746 mmHg 78%
    10:00 +14°C° 0 mm 4 mps 746 mmHg 71%
    11:00 +15°C° 0 mm 4 mps 746 mmHg 68%
    12:00 +15°C° 0 mm 4 mps 745 mmHg 65%
    13:00 +17°C° 0 mm 4 mps 745 mmHg 62%
    14:00 +17°C° 0 mm 4 mps 745 mmHg 65%
    15:00 +15°C° 0 mm 5 mps 744 mmHg 68%
    16:00 +15°C° 0 mm 5 mps 744 mmHg 70%
    17:00 +14°C° 0 mm 5 mps 744 mmHg 76%
    18:00 +12°C° 0 mm 5 mps 744 mmHg 82%
    19:00 +10°C° 0 mm 5 mps 744 mmHg 88%
    20:00 +10°C° 0 mm 5 mps 744 mmHg 87%
    21:00 +10°C° 0 mm 5 mps 744 mmHg 86%
    22:00 +9°C° 0 mm 5 mps 744 mmHg 85%
    23:00 +10°C° 0.1 mm 5 mps 744 mmHg 82%

    25 February, Saturday

    Time Temperature Precipitation Wind Pressure Humidity
    00:00 +10°C° 0.1 mm 5 mps 743 mmHg 80%
    01:00 +10°C° 0.1 mm 5 mps 743 mmHg 77%
    02:00 +10°C° 0.2 mm 5 mps 743 mmHg 77%
    03:00 +10°C° 0.2 mm 5 mps 742 mmHg 77%
    04:00 +10°C° 0.2 mm 5 mps 742 mmHg 77%
    05:00 +10°C° 0.9 mm 5 mps 742 mmHg 79%
    06:00 +10°C° 0.9 mm 5 mps 742 mmHg 81%
    07:00 +10°C° 0.9 mm 5 mps 742 mmHg 83%
    08:00 +12°C° 0.8 mm 5 mps 742 mmHg 83%
    09:00 +13°C° 0.8 mm 4 mps 742 mmHg 82%
    10:00 +13°C° 0.8 mm 4 mps 742 mmHg 81%
    11:00 +14°C° 0.5 mm 4 mps 742 mmHg 79%
    12:00 +16°C° 0.5 mm 3 mps 742 mmHg 78%
    13:00 +17°C° 0.5 mm 3 mps 742 mmHg 76%
    14:00 +17°C° 0.5 mm 3 mps 743 mmHg 77%
    15:00 +16°C° 0.5 mm 3 mps 743 mmHg 79%
    16:00 +16°C° 0.5 mm 3 mps 743 mmHg 81%
    17:00 +14°C° 0.7 mm 3 mps 743 mmHg 83%
    18:00 +13°C° 0.7 mm 3 mps 744 mmHg 86%
    19:00 +12°C° 0.7 mm 3 mps 745 mmHg 88%
    20:00 +12°C° 0.4 mm 3 mps 745 mmHg 88%
    21:00 +11°C° 0.4 mm 3 mps 746 mmHg 88%
    22:00 +11°C° 0.4 mm 3 mps 746 mmHg 87%
    23:00 +10°C° 0.6 mm 3 mps 746 mmHg 88%

    26 February, Sunday

    Time Temperature Precipitation Wind Pressure Humidity
    00:00 +10°C° 0.6 mm 3 mps 746 mmHg 88%
    01:00 +10°C° 0.6 mm 3 mps 747 mmHg 88%
    02:00 +9°C° 0.2 mm 3 mps 747 mmHg 88%
    03:00 +9°C° 0.2 mm 2 mps 747 mmHg 89%
    04:00 +9°C° 0.2 mm 2 mps 747 mmHg 89%
    05:00 +9°C° 0 mm 2 mps 747 mmHg 88%
    06:00 +9°C° 0 mm 2 mps 747 mmHg 87%
    07:00 +9°C° 0 mm 2 mps 747 mmHg 87%
    08:00 +12°C° 0 mm 2 mps 748 mmHg 81%
    09:00 +14°C° 0 mm 2 mps 748 mmHg 75%
    10:00 +16°C° 0 mm 1 mps 748 mmHg 69%
    11:00 +16°C° 0.1 mm 1 mps 748 mmHg 66%
    12:00 +18°C° 0.1 mm 1 mps 747 mmHg 64%
    13:00 +19°C° 0.1 mm 1 mps 747 mmHg 61%
    14:00 +19°C° 0.2 mm 1 mps 747 mmHg 65%
    15:00 +18°C° 0.2 mm 1 mps 747 mmHg 69%
    16:00 +16°C° 0.2 mm 2 mps 747 mmHg 72%
    17:00 +15°C° 0.1 mm 1 mps 747 mmHg 78%
    18:00 +13°C° 0.1 mm 1 mps 747 mmHg 85%
    19:00 +12°C° 0.1 mm 1 mps 747 mmHg 91%
    20:00 +11°C° 0 mm 1 mps 747 mmHg 91%
    21:00 +11°C° 0 mm 1 mps 747 mmHg 91%
    22:00 +9°C° 0 mm 0 mps 748 mmHg 92%
    23:00 +9°C° 0 mm 0 mps 747 mmHg 92%

    27 February, Monday

    Time Temperature Precipitation Wind Pressure Humidity
    00:00 +9°C° 0 mm 0 mps 747 mmHg 92%
    01:00 +8°C° 0 mm 0 mps 747 mmHg 92%
    02:00 +8°C° 0 mm 0 mps 747 mmHg 92%
    03:00 +8°C° 0 mm 0 mps 747 mmHg 92%
    04:00 +9°C° 0 mm 1 mps 747 mmHg 92%
    05:00 +9°C° 0 mm 1 mps 747 mmHg 92%
    06:00 +9°C° 0 mm 1 mps 748 mmHg 91%
    07:00 +10°C° 0 mm 1 mps 748 mmHg 91%
    08:00 +12°C° 0 mm 1 mps 748 mmHg 82%
    09:00 +14°C° 0 mm 1 mps 748 mmHg 74%
    10:00 +18°C° 0 mm 1 mps 749 mmHg 65%
    11:00 +18°C° 0 mm 1 mps 748 mmHg 63%
    12:00 +18°C° 0 mm 2 mps 748 mmHg 60%
    13:00 +19°C° 0 mm 2 mps 748 mmHg 58%
    14:00 +18°C° 0 mm 2 mps 747 mmHg 62%
    15:00 +18°C° 0 mm 2 mps 747 mmHg 65%
    16:00 +17°C° 0 mm 2 mps 747 mmHg 69%
    17:00 +15°C° 0 mm 2 mps 747 mmHg 77%
    18:00 +13°C° 0 mm 2 mps 747 mmHg 84%
    19:00 +12°C° 0 mm 1 mps 747 mmHg 92%
    20:00 +11°C° 0 mm 1 mps 748 mmHg 91%
    21:00 +11°C° 0 mm 1 mps 748 mmHg 91%
    22:00 +11°C° 0 mm 1 mps 748 mmHg 91%
    23:00 +10°C° 0 mm 1 mps 748 mmHg 91%
    Show more